Location: ???????
(55.2139°N, 38.2373°E)
Time: 06:02:54
(UTC+00:00)

Daily predictions for brighter satellites

Satellite Brightness Start Highest point End
(mag) Time Altitude Azimuth Time Altitude Azimuth Time Altitude Azimuth
NOSS 3-3 (A) 4.0 14:01:14 10° WSW 14:06:45 76° NW 14:13:32 10° NE
GEOS 3 Rocket 4.5 14:02:09 10° NE 14:07:09 43° NNW 14:12:11 10° W
Cosmos 2297 Rocket 4.0 14:03:31 10° WNW 14:07:32 19° NNW 14:11:33 10° NNE
Cosmos 1459 Rocket 4.1 14:01:21 10° S 14:07:35 69° E 14:13:56 10° NNE
Cosmos 1025 Rocket 3.1 14:04:16 10° NNW 14:08:38 86° W 14:12:56 10° S
Cosmos 2100 Rocket 4.0 14:02:43 10° S 14:08:53 76° E 14:15:03 10° NNE
Thor Agena Rocket 3.6 14:04:30 10° SSE 14:09:46 76° ENE 14:15:03 10° NNW
DNEPR-1 R/B 4.2 14:08:01 10° NW 14:12:20 63° SW 14:17:11 10° SSE
SWARM A 4.4 14:09:07 10° N 14:12:24 51° E 14:15:38 10° SSE
CZ-2D R/B 3.4 14:10:29 10° SE 14:13:22 33° ENE 14:16:16 10° N
Geosat FO 4.5 14:11:14 10° ESE 14:13:58 40° NE 14:16:43 10° NNW
Cosmos 1674 Rocket 4.3 14:10:33 10° NNW 14:14:51 58° W 14:19:07 10° S
RESURS DK-1 2.8 14:14:07 10° NNW 14:17:54 38° NE 14:21:40 10° ESE
SAR-Lupe-1 4.3 14:15:40 10° SE 14:19:06 46° ENE 14:22:35 10° N
Meteor 1-28 Rocket 3.0 14:16:29 10° NNE 14:19:49 55° ESE 14:23:08 10° S
Cosmos 1606 1.9 14:17:34 10° SSW 14:20:14 78° W 14:22:55 10° N
IGS 5A 3.3 14:16:18 10° SSE 14:20:18 87° ENE 14:24:21 10° NNW
Cosmos 1864 Rocket 4.5 14:15:42 10° S 14:21:46 67° E 14:27:57 10° NNE
IRS-P3 4.3 14:18:21 10° SE 14:23:28 49° ENE 14:28:36 10° N
ATLAS 2AS CENTAUR R/B 3.3 14:17:40 10° WNW 14:24:10 42° N 14:30:12 12° ENE
Cosmos 2221 Rocket 4.1 14:22:41 10° NNW 14:27:11 66° W 14:31:36 10° S
Cosmos 2061 Rocket 4.3 14:23:50 10° SSE 14:29:47 47° E 14:35:43 10° NNE
SAR-Lupe-4 3.5 14:28:03 10° SSE 14:31:37 71° ENE 14:35:12 10° NNW
NOSS 3-3 (C) 4.2 14:28:07 10° WSW 14:33:42 67° NNW 14:40:15 11° NE
YAOGAN 1 3.5 14:30:24 10° ESE 14:33:52 25° ENE 14:37:21 10° N
PSLV R/B 4.5 14:32:43 10° ESE 14:35:59 24° ENE 14:39:15 10° N
Cosmos 1725 Rocket 4.0 14:29:57 10° S 14:36:13 76° E 14:42:33 10° NNE
Cosmos 2344 3.9 14:30:09 10° WNW 14:37:21 55° NNE 14:46:00 11° E
Cosmos 2233 Rocket 4.1 14:31:50 10° S 14:37:58 58° E 14:44:10 10° NNE
SJ-12 3.6 14:35:43 10° SSE 14:39:29 68° ENE 14:43:16 10° N
ARIANE 5 R/B 2.4 14:34:54 10° SSE 14:39:53 81° ENE 14:44:55 10° NNW
Resurs 1-3 4.5 14:36:50 10° ESE 14:40:25 26° ENE 14:44:02 10° N
ARIANE 6 FM1 Upper Stage 3.0 14:39:05 10° WSW 14:43:01 54° NNW 14:46:07 15° NE
CZ-2D R/B 4.0 14:39:30 10° SE 14:43:18 36° ENE 14:47:10 10° N
Cosmos 1340 Rocket 3.7 14:40:09 10° SSW 14:43:54 48° WNW 14:47:39 10° N
Cosmos 468 Rocket 4.4 14:39:02 10° NNW 14:44:01 42° NE 14:48:57 10° ESE
Aureole 3 Rocket 4.3 14:43:03 10° ESE 14:43:37 12° ESE 14:43:37 12° ESE
Cosmos 2173 Rocket 4.4 14:40:42 10° SSW 14:46:51 67° WNW 14:53:00 10° N
Cosmos 2058 3.6 14:43:51 10° N 14:47:21 29° ENE 14:50:50 10° SE
IRAS Rocket 4.5 14:43:10 10° SE 14:48:26 46° ENE 14:53:42 10° N
Resurs 01 Rocket 3.0 14:49:03 18° ENE 14:49:52 18° NE 14:52:54 10° NNE
SMAP 3.4 14:47:48 10° S 14:52:28 71° WSW 14:57:09 10° NNW
Cosmos 2227 Rocket 4.1 14:51:49 10° WNW 14:55:46 19° NNW 14:59:42 10° NNE
Cosmos 2082 Rocket 2.3 14:51:06 10° NNW 14:56:39 54° NE 15:02:09 10° SE
SL-08 R/B 4.4 14:51:10 10° S 14:57:16 85° E 15:03:23 10° NNE
Cosmos 1802 Rocket 4.3 14:52:12 10° SSW 14:58:37 76° WNW 15:05:05 10° N
SPOT 1/Viking Rocket 3.5 14:59:25 10° SE 15:04:30 60° ENE 15:09:37 10° N
Cosmos 2278 Rocket 3.0 15:00:04 10° SSE 15:04:51 29° ESE 15:07:18 21° ENE
Timation 1 Rocket 4.3 14:59:16 10° NW 15:05:16 86° NE 15:11:15 10° SE
Landsat 7 4.0 15:00:54 10° S 15:05:34 74° WSW 15:10:15 10° NNW
Cosmos 1943 Rocket 2.9 15:01:17 10° SSE 15:06:07 30° ESE 15:08:37 21° ENE
AQUARIUS 4.2 15:02:07 10° SSE 15:06:32 84° WSW 15:10:59 10° NNW
Cosmos 407 Rocket 4.0 15:03:58 10° S 15:08:41 37° ESE 15:11:36 20° NE
Cosmos 1782 Rocket 3.5 15:05:02 10° S 15:09:28 90° WSW 15:13:56 10° NNE
Cosmos 1869 3.3 15:06:09 10° SSE 15:09:29 41° E 15:11:07 24° NE
Cosmos 1812 4.5 15:07:10 10° SSE 15:07:20 11° SE 15:07:20 11° SE
Cosmos 2084 Rocket 3.5 15:08:48 10° SW 15:12:55 59° SE 15:14:52 29° ENE
CARTOSAT-1 4.3 15:14:03 28° E 15:14:46 30° ENE 15:18:27 10° N
ATLAS 5 CENTAUR R/B 3.4 15:11:06 10° WNW 15:14:58 34° SW 15:19:39 10° SSE
SJ-7 4.2 15:11:39 10° SE 15:15:13 51° ENE 15:18:51 10° N
SL-16 R/B 3.2 15:11:03 10° NNE 15:17:10 56° WNW 15:23:15 10° SW
Cosmos 1300 Rocket 3.8 15:12:53 10° SSW 15:17:16 71° WNW 15:21:39 10° N
Cosmos 2016 Rocket 4.5 15:14:36 10° SSW 15:20:52 64° WNW 15:27:14 10° N
COSMOS 2406 3.4 15:17:36 10° NNW 15:23:10 51° NE 15:26:28 24° ESE
Cosmos 1975 Rocket 3.7 15:19:54 10° NNW 15:24:09 56° W 15:28:24 10° S
Spot 4 Rocket 3.9 15:19:19 10° SSE 15:24:24 74° ENE 15:29:31 10° NNW
Cosmos 2026 Rocket 4.4 15:19:20 10° N 15:24:54 36° ENE 15:28:19 21° ESE
USA 281 3.5 15:22:21 20° ESE 15:26:39 47° NE 15:32:54 10° NNW
Cosmos 2263 Rocket 4.1 15:23:50 10° WNW 15:27:41 19° NNW 15:31:27 10° NNE
ATLAS CENTAUR R/B 1.9 15:24:23 10° WSW 15:27:42 40° NNW 15:29:04 27° NNE
MOS 1 Rocket 3.3 15:24:16 10° S 15:28:34 73° WSW 15:33:07 10° NNW
Cosmos 2151 Rocket 4.2 15:24:41 10° SSE 15:28:25 34° E 15:28:25 34° E
Cosmos 1844 Rocket 4.1 15:25:17 10° W 15:30:17 32° NW 15:35:09 11° NNE
UNK 4.4 15:25:52 10° N 15:30:24 57° WNW 15:34:55 10° SW
COSMO-SKYMED 1 2.8 15:34:15 40° ESE 15:34:15 40° ESE 15:38:01 10° S
SKYMED 2 3.6 15:31:12 19° NNE 15:34:11 56° E 15:38:27 10° S
Cosmos 921 Rocket 4.3 15:31:27 10° SW 15:35:34 39° WNW 15:39:47 10° NNE
CZ-4C R/B 2.7 15:30:49 10° W 15:35:35 52° NNW 15:39:10 23° NE
Meteor 2-3 Rocket 4.0 15:30:21 10° N 15:35:50 43° ENE 15:38:23 27° ESE
Cosmos 1867 4.4 15:31:08 10° W 15:36:22 44° NNW 15:39:38 21° NE
Cosmos 1513 Rocket 4.5 15:30:08 10° S 15:36:25 66° E 15:42:47 10° NNE
Cosmos 1763 Rocket 4.1 15:31:23 10° NNW 15:36:32 58° WSW 15:41:35 10° S
Cosmos 540 Rocket 3.8 15:32:19 10° NNW 15:37:25 65° WSW 15:42:29 10° SSE
ISS -1.6 15:42:08 10° SSW 15:43:36 17° S 15:43:36 17° S
BREEZE-M DEB (TANK) 4.5 15:42:27 10° SSW 15:45:26 30° SE 15:46:03 29° SE
Nadezhda 4 Rocket 3.9 15:40:09 10° N 15:46:30 75° ENE 15:52:45 10° SSE
Cosmos 1140 Rocket 3.6 15:41:22 10° SW 15:46:33 74° WNW 15:50:29 18° NNE
Cosmos 1269 Rocket 4.3 15:41:22 10° SW 15:46:36 68° WNW 15:50:57 15° NNE
NOAA 6 3.9 15:45:00 10° SSE 15:50:08 79° ENE 15:55:18 10° NNW
Helios 1A Rocket 4.4 15:54:42 19° S 15:54:42 19° S 15:55:49 10° S
Cosmos 2297 Rocket 4.0 15:50:09 10° NNW 15:53:48 17° N 15:55:01 16° NNE
RESURS DK-1 3.8 15:51:37 10° NW 15:55:20 36° WSW 15:59:01 10° S
Cosmos 1602 3.9 15:54:46 10° NNW 15:57:46 50° W 15:58:11 46° SW
Cosmos 2251 Rocket 3.6 15:53:58 10° S 15:59:05 52° ESE 15:59:28 51° E
Cosmos 2195 Rocket 4.4 15:54:01 10° N 16:00:18 67° ENE 16:06:36 10° SSE
BREEZE M DEB (TANK) 3.8 15:50:35 10° W 16:03:54 53° SSW 16:05:36 37° SE
Cosmos 1862 3.2 16:00:24 10° NNW 16:04:01 71° W 16:04:12 69° SW
Geosat 4.3 16:01:25 16° SSE 16:05:24 67° WSW 16:10:25 10° NW
SPOT 5 4.3 16:07:36 27° NNE 16:07:36 27° NNE 16:10:28 10° N
Timation 2 Rocket 4.1 15:59:43 10° SSW 16:06:35 76° ESE 16:10:11 31° NE
Cosmos 1428 Rocket 4.4 16:01:47 10° N 16:08:05 87° ENE 16:14:24 10° S
YAOGAN 1 3.2 16:05:18 10° S 16:09:28 54° W 16:13:41 10° NNW
Cosmos 489 Rocket 4.5 16:04:25 10° NNW 16:10:44 80° WSW 16:15:53 16° SSE
PSLV R/B 4.2 16:07:01 10° S 16:10:58 51° W 16:14:55 10° NNW
Cosmos 841 Rocket 3.4 16:08:46 10° NNW 16:14:05 90° SW 16:15:36 48° SSE
ATLAS 2AS CENTAUR R/B 2.7 16:09:18 10° NW 16:16:07 65° NNE 16:17:37 52° E
Resurs 1-3 4.4 16:12:03 10° S 16:16:15 50° W 16:20:28 10° NNW
Terra 4.3 16:23:06 10° N 16:23:06 10° N 16:23:09 10° N
ARIANE 6 FM1 Upper Stage 4.0 16:19:08 10° WNW 16:22:10 29° NNW 16:22:10 29° NNW
Cosmos 2058 4.3 16:19:54 10° NNW 16:23:34 36° W 16:27:12 10° SSW
SJ 16-02 3.5 16:20:27 10° S 16:21:10 15° S 16:21:10 15° S
Resurs 01 Rocket 1.9 16:26:28 61° NNW 16:26:28 61° NNW 16:30:10 10° NNW
Cosmos 1536 Rocket 4.4 16:21:30 10° NNW 16:25:49 50° W 16:30:05 10° S
Cosmos 44 Rocket 3.9 16:25:09 10° SSW 16:28:34 45° SSW 16:28:34 45° SSW
Cosmos 1464 Rocket 4.1 16:29:42 10° SSW 16:36:00 74° WNW 16:42:15 10° N
Cosmos 1190 Rocket 4.2 16:31:15 10° SSW 16:35:36 61° S 16:35:36 61° S
Cosmos 2082 Rocket 3.5 16:35:26 10° NW 16:40:35 38° WSW 16:45:21 12° S
Cosmos 2227 Rocket 4.1 16:38:23 10° NNW 16:42:03 17° N 16:42:04 17° N
Cosmos 2034 Rocket 3.9 16:41:28 10° SSW 16:47:40 85° W 16:54:00 10° N
Cosmos 2278 Rocket 2.4 16:42:52 10° SW 16:48:31 69° NW 16:49:10 63° NNW
Cosmos 1943 Rocket 2.4 16:43:55 10° SW 16:49:30 66° NW 16:50:09 60° NNW
Cosmos 407 Rocket 4.3 16:45:31 10° SW 16:50:31 47° NW 16:51:44 39° NNW
Cosmos 2344 3.9 16:44:33 10° NW 16:52:14 73° SW 16:56:03 40° SSE
Cosmos 1092 Rocket 4.2 16:54:42 10° NNW 17:00:58 70° W 17:02:33 50° SSW
ATLAS CENTAUR R/B 4.1 17:01:00 10° WNW 17:01:34 13° NW 17:01:34 13° NW
BREEZE-M DEB (TANK) 4.4 17:02:17 10° WSW 17:04:22 43° SW 17:04:22 43° SW
COSMOS 2406 4.2 17:02:05 10° NW 17:07:24 42° WSW 17:08:32 38° SW
USA 281 3.6 17:09:14 44° SSW 17:11:06 57° WSW 17:17:36 10° NW
Cosmos 2263 Rocket 4.3 17:10:13 10° NNW 17:13:06 17° N 17:13:06 17° N
CZ-4C R/B 3.4 17:19:47 10° WNW 17:24:07 38° NNW 17:24:07 38° NNW
Cosmos 2297 Rocket 4.2 17:34:39 10° NNW 17:36:48 20° N 17:36:48 20° N
ATLAS 2AS CENTAUR R/B 3.7 18:00:27 10° NW 18:05:02 39° W 18:05:02 39° W
ACS3 Solar Sail 4.2 23:11:18 10° NE 23:13:18 15° ENE 23:13:18 15° ENE
CENTAUR R/B 4.4 23:18:14 34° NE 23:18:14 34° NE 23:23:24 10° ENE
